Weather History for Fredericton, NB

Change the Weather History Date:

Thursday, October 11, 2012

  Actual Average Record
Temperature  
Mean Temperature 48 °F -  
Max Temperature 58 °F 51 °F 77 °F (2003)
Min Temperature 33 °F 32 °F 30 °F (1996)
Degree Days  
Heating Degree Days 18    
Moisture  
Dew Point 35 °F    
Average Humidity 63    
Maximum Humidity 100    
Minimum Humidity 28    
Precipitation  
Precipitation 0.08 in 0.13 in - ()
Sea Level Pressure  
Sea Level Pressure 29.60 in    
Wind  
Wind Speed 11 mph ()    
Max Wind Speed 23 mph    
Max Gust Speed 37 mph    
Visibility 6.1 miles    
Events Rain    
Averages and records for this station are not official NWS values.
T = Trace of Precipitation, MM = Missing Value Source: Averaged Metar Reports

Daily Weather History Graph

Daily Weather History Graph

Search for Another Location

Airport:

Trip Planner

Search our weather history database for the weather conditions in past years. The results will help you decide how hot, cold, wet, or windy it might be!

Date:

Astronomy

Oct. 11, 2012 Rise Set
Actual Time 7:38 AM ADT 6:46 PM ADT
Civil Twilight 7:08 AM ADT 7:16 PM ADT
Nautical Twilight 6:33 AM ADT 7:50 PM ADT
Astronomical Twilight 5:58 AM ADT 8:25 PM ADT
Moon 2:59 AM ADT (10/11) 4:31 PM ADT (10/11)
Length of Visible Light 12h 08m
Length of Day
11h 08m
Waning Crescent, 19% of the Moon is Illuminated
Oct 11
Waning Crescent
Oct 15
New
Oct 22
First Quarter
Oct 29
Full
Nov 6
Last Quarter

Hourly Weather History & Observations

Time (ADT) Temp. Windchill Dew Point Humidity Pressure Visibility Wind Dir Wind Speed Gust Speed Precip Events Conditions
12:00 AM 57.2 °F - - N/A% 29.67 in 9.0 mi SE 8.1 mph - N/A   Overcast
12:29 AM 57.2 °F - - N/A% 29.62 in 9.0 mi ESE 10.4 mph - N/A   Overcast
12:48 AM 57.2 °F - - N/A% 29.61 in 9.0 mi ESE 12.7 mph - N/A Rain Light Rain
12:56 AM 57.2 °F - - N/A% 29.60 in 5.0 mi SE 10.4 mph - N/A Rain Light Rain
1:00 AM 57.2 °F - - N/A% 29.59 in 3.0 mi SE 10.4 mph - N/A Rain Rain
1:17 AM 57.2 °F - - N/A% 29.56 in 4.0 mi ESE 9.2 mph 17.3 mph N/A Rain Light Rain
1:24 AM 57.2 °F - - N/A% 29.55 in 3.0 mi ESE 12.7 mph - N/A Rain Heavy Rain
1:25 AM 57.2 °F - - N/A% 29.55 in 2.5 mi ESE 13.8 mph - N/A Rain Heavy Rain
1:28 AM 57.2 °F - - N/A% 29.54 in 1.8 mi ESE 16.1 mph - N/A Rain Heavy Rain
1:33 AM 57.2 °F - - N/A% 29.53 in 2.0 mi ESE 11.5 mph 20.7 mph N/A Rain Light Rain
1:35 AM 57.2 °F - - N/A% 29.53 in 2.2 mi ESE 10.4 mph 20.7 mph N/A Rain Light Rain
1:36 AM 57.2 °F - - N/A% 29.53 in 2.5 mi SE 11.5 mph 20.7 mph N/A Rain Light Rain
1:37 AM 57.2 °F - - N/A% 29.53 in 3.0 mi SE 12.7 mph 20.7 mph N/A Rain Light Rain
1:39 AM 57.2 °F - - N/A% 29.53 in 6.0 mi SE 10.4 mph 17.3 mph N/A Rain Light Rain
1:52 AM 57.2 °F - - N/A% 29.52 in 5.0 mi SE 9.2 mph - N/A Rain Rain
1:54 AM 57.2 °F - - N/A% 29.52 in 4.0 mi SE 10.4 mph - N/A   Overcast
1:55 AM 57.2 °F - - N/A% 29.52 in 3.0 mi SE 10.4 mph - N/A Rain Rain
1:56 AM 57.2 °F - - N/A% 29.52 in 3.0 mi SE 10.4 mph - N/A Rain Rain
1:57 AM 57.2 °F - - N/A% 29.52 in 3.0 mi SE 10.4 mph - N/A Rain Light Rain
1:59 AM 57.2 °F - - N/A% 29.52 in 3.0 mi SE 10.4 mph - N/A Rain Light Rain
2:00 AM 57.2 °F - - N/A% 29.51 in 3.0 mi SE 10.4 mph - N/A Rain Light Rain
2:01 AM 57.2 °F - - N/A% 29.51 in 4.0 mi SE 9.2 mph - N/A Rain Light Rain
2:02 AM 57.2 °F - - N/A% 29.51 in 4.0 mi SSE 9.2 mph - N/A Rain Light Rain
2:05 AM 57.2 °F - - N/A% 29.51 in 6.0 mi SE 9.2 mph - N/A Rain Light Rain
2:24 AM 57.2 °F - - N/A% 29.49 in 5.0 mi SSE 12.7 mph 21.9 mph N/A Rain Rain
2:40 AM 59.0 °F - - N/A% 29.48 in 5.0 mi SSE 12.7 mph 18.4 mph N/A Rain Light Rain
2:52 AM 59.0 °F - - N/A% 29.48 in 3.0 mi South 13.8 mph 20.7 mph N/A Rain Light Rain
3:00 AM 58 °F - - % 29.49 in 4 mi South 13.8 mph - -   Overcast
3:00 AM 59.0 °F - - N/A% 29.49 in 4.0 mi SSW 12.7 mph 20.7 mph N/A Rain Light Rain
3:01 AM 59.0 °F - - N/A% 29.49 in 4.0 mi SW 11.5 mph 20.7 mph N/A Rain Light Rain
3:08 AM 59.0 °F - - N/A% 29.49 in 2.2 mi South 10.4 mph 18.4 mph N/A Rain Light Rain
3:11 AM 59.0 °F - - N/A% 29.48 in 1.8 mi South 12.7 mph - N/A Rain Light Rain
3:15 AM 59.0 °F - - N/A% 29.47 in 2.0 mi SSE 13.8 mph - N/A Rain Light Rain
3:18 AM 59.0 °F - - N/A% 29.47 in 3.0 mi SSE 10.4 mph 18.4 mph N/A Rain Light Rain
3:20 AM 59.0 °F - - N/A% 29.47 in 5.0 mi South 11.5 mph 18.4 mph N/A Rain Light Rain
3:21 AM 59.0 °F - - N/A% 29.47 in 7.0 mi SSE 11.5 mph 18.4 mph N/A Rain Light Rain
3:22 AM 59.0 °F - - N/A% 29.47 in 9.0 mi South 10.4 mph 18.4 mph N/A Rain Light Rain
3:24 AM 59.0 °F - - N/A% 29.47 in 9.0 mi South 10.4 mph 18.4 mph N/A   Overcast
3:33 AM 59.0 °F - - N/A% 29.47 in 9.0 mi South 10.4 mph - N/A   Overcast
3:43 AM 59.0 °F - - N/A% 29.46 in 5.0 mi South 8.1 mph - N/A   Haze
3:46 AM 59.0 °F - - N/A% 29.46 in 4.0 mi SSW 8.1 mph - N/A Rain Light Rain
3:54 AM 55.4 °F - 55.4 °F 100% 29.48 in 2.5 mi WNW 16.1 mph 24.2 mph N/A Rain Light Rain
4:00 AM 53.6 °F - - N/A% 29.49 in 2.2 mi WNW 12.7 mph 24.2 mph N/A Rain Light Rain
4:05 AM 51.8 °F - - N/A% 29.49 in 3.0 mi West 12.7 mph 20.7 mph N/A Rain Light Rain
4:09 AM 51.8 °F - - N/A% 29.49 in 6.0 mi West 12.7 mph 20.7 mph N/A Rain Light Rain
4:32 AM 51.8 °F - - N/A% 29.50 in 9.0 mi West 13.8 mph 24.2 mph N/A   Overcast
5:00 AM 50.0 °F - - N/A% 29.51 in 9.0 mi West 11.5 mph 23.0 mph N/A   Overcast
5:12 AM 50.0 °F - 50.0 °F 100% 29.52 in 9.0 mi West 9.2 mph 20.7 mph N/A   Overcast
6:00 AM 48.2 °F - 44.6 °F 87% 29.53 in 9.0 mi West 6.9 mph 18.4 mph N/A   Overcast
7:00 AM 44.6 °F 40.2 °F - N/A% 29.55 in 9.0 mi SW 8.1 mph - N/A   Partly Cloudy
8:00 AM 46.4 °F 40.4 °F 42.8 °F 87% 29.58 in 9.0 mi WSW 13.8 mph 20.7 mph N/A   Overcast
9:00 AM 45 °F - 40 °F 75% 29.64 in 10 mi West 13.8 mph - -  
9:00 AM 44.6 °F 38.4 °F 39.2 °F 81% 29.64 in 9.0 mi West 12.7 mph 27.6 mph N/A   Mostly Cloudy
10:00 AM 48.2 °F - 39.2 °F 71% 29.67 in 9.0 mi West 10.4 mph 23.0 mph N/A   Scattered Clouds
11:00 AM 50.0 °F - 39.2 °F 66% 29.69 in 9.0 mi West 10.4 mph 24.2 mph N/A   Mostly Cloudy
11:48 AM 51.8 °F - 37.4 °F 58% 29.70 in 9.0 mi WSW 21.9 mph 29.9 mph N/A   Mostly Cloudy
12:00 PM 53.6 °F - 37.4 °F 54% 29.70 in 9.0 mi WSW 12.7 mph 32.2 mph N/A   Mostly Cloudy
12:08 PM 50.0 °F - 39.2 °F 66% 29.72 in 9.0 mi WSW 18.4 mph 31.1 mph N/A Rain Light Rain
12:31 PM 48.2 °F - 39.2 °F 71% 29.73 in 9.0 mi West 12.7 mph 25.3 mph N/A   Mostly Cloudy
1:00 PM 51.8 °F - 33.8 °F 50% 29.73 in 9.0 mi West 18.4 mph 34.5 mph N/A   Partly Cloudy
2:00 PM 51.8 °F - 30.2 °F 44% 29.75 in 9.0 mi West 23.0 mph 36.8 mph N/A   Scattered Clouds
3:00 PM 52 °F - 29 °F 28% 29.80 in 10 mi West 19.6 mph - -  
3:00 PM 51.8 °F - 28.4 °F 41% 29.80 in 9.0 mi West 21.9 mph 33.4 mph N/A   Mostly Cloudy
4:00 PM 51.8 °F - 26.6 °F 38% 29.83 in 9.0 mi West 19.6 mph 32.2 mph N/A   Scattered Clouds
5:00 PM 50.0 °F - 28.4 °F 43% 29.87 in 9.0 mi WSW 17.3 mph 27.6 mph N/A   Scattered Clouds
6:00 PM 50.0 °F - 24.8 °F 37% 29.92 in 9.0 mi West 20.7 mph 26.5 mph N/A   Scattered Clouds
7:00 PM 46.4 °F 42.4 °F 26.6 °F 46% 29.95 in 9.0 mi WSW 8.1 mph - N/A   Clear
8:00 PM 41.0 °F 37.1 °F 28.4 °F 61% 29.97 in 9.0 mi WSW 5.8 mph - N/A   Clear
9:00 PM 41 °F - 28 °F 48% 29.99 in 10 mi WSW 8.1 mph - -  
9:00 PM 41.0 °F 35.2 °F 28.4 °F 61% 29.99 in 9.0 mi WSW 9.2 mph - N/A   Clear
10:00 PM 37.4 °F 32.1 °F 28.4 °F 70% 30.00 in 9.0 mi SW 6.9 mph - N/A   Clear
11:00 PM 33.8 °F 28.6 °F 28.4 °F 81% 30.01 in 9.0 mi South 5.8 mph - N/A   Clear